Regional Weather Roundup
Issued by NWS

Home | Current Version | Previous Version | Graphics & Text | Print | Product List | Glossary On
Versions: 1 2 3 4 5 6 7 8 9 10 11 12 13 14 15 16 17 18 19 20 21 22 23 24 25 26 27 28 29 30 31 32 33 34 35 36 37 38 39 40 41 42 43 44 45 46 47 48 49 50
000
ASUS45 KPSR 251810
RWRAZ

ARIZONA REGIONAL HOURLY WEATHER ROUNDUP
NATIONAL WEATHER SERVICE PHOENIX AZ
1100 AM MST TUE NOV 25 2014

NOTE: FAIR INDICATES FEW OR NO CLOUDS BELOW 12,000 FEET WITH NO
SIGNIFICANT WEATHER AND/OR OBSTRUCTIONS TO VISIBILITY.

AZZ001>003-036-251900-
NORTHWEST ARIZONA

CITY           SKY/WX    TMP DP  RH WIND       PRES   REMARKS
BULLHEAD CITY  SUNNY     54  18  24 CALM      30.51S
KINGMAN        SUNNY     54   2  12 NW3       30.48S
6HR MIN TEMP:  23; 6HR MAX TEMP:  54;

$$

AZZ004>008-015-016-018-251900-
NORTH CENTRAL ARIZONA

CITY           SKY/WX    TMP DP  RH WIND       PRES   REMARKS
GRAND CANYON   SUNNY     45  -4  13 NW6       30.47F
6HR MIN TEMP:   2; 6HR MAX TEMP:  45;

PRESCOTT       SUNNY     44   0  16 NE7       30.49R
6HR MIN TEMP:  20; 6HR MAX TEMP:  46;

FLAGSTAFF      SUNNY     49 -12   7 W10G22    30.44F
6HR MIN TEMP:  12; 6HR MAX TEMP:  49;

PAYSON         SUNNY     46  -2  13 VRB3      30.47S
$$

AZZ009>014-017-251900-
NORTHEAST ARIZONA

CITY           SKY/WX    TMP DP  RH WIND       PRES   REMARKS
WINSLOW        SUNNY     40   2  20 E7        30.47F
6HR MIN TEMP:  12; 6HR MAX TEMP:  40;

SAINT JOHNS    SUNNY     38   9  30 VRB3      30.46F
6HR MIN TEMP:  12; 6HR MAX TEMP:  38;

SHOW LOW       SUNNY     39  -4  16 CALM      30.48F
$$

AZZ023-251900-
GREATER PHOENIX AREA

CITY           SKY/WX    TMP DP  RH WIND       PRES   REMARKS
PHOENIX        SUNNY     63   5  10 NE9       30.44F
6HR MIN TEMP:  46; 6HR MAX TEMP:  63;

BUCKEYE          N/A     59   7  12 CALM      30.47F
GLENDALE       SUNNY     61   9  12 CALM      30.47F
LUKE AFB       SUNNY     61   5  11 NE5       30.45F
6HR MIN TEMP:  38; 6HR MAX TEMP:  61;

DEER VALLEY    SUNNY     59   0   9 CALM      30.45F
6HR MIN TEMP:  41; 6HR MAX TEMP:  60;

SCOTTSDALE     SUNNY     59   3  10 CALM      30.46F
6HR MIN TEMP:  41; 6HR MAX TEMP:  61;

MESA-FALCON    SUNNY     57   7  13 NE12      30.44F
CHANDLER       SUNNY     61   9  12 VRB5      30.45F
$$

AZZ027-028-251900-
SOUTHWEST MARICOPA COUNTY AND PINAL COUNTY

CITY           SKY/WX    TMP DP  RH WIND       PRES   REMARKS
CASA GRANDE    SUNNY     61   7  11 NE8       30.44F
6HR MIN TEMP:  45; 6HR MAX TEMP:  61;

GILA BEND      CLEAR     61   5  11 N9        30.44
$$

AZZ503-504-507>509-251900-
SOUTHEAST ARIZONA

CITY           SKY/WX    TMP DP  RH WIND       PRES   REMARKS
TUCSON         SUNNY     58   2  10 N7        30.42F
6HR MIN TEMP:  37; 6HR MAX TEMP:  58;

DAVIS-MONTHAN  SUNNY     56  -2   9 NW2       30.40F
6HR MIN TEMP:  37; 6HR MAX TEMP:  56;

RYAN FIELD       N/A     63  16  16 CALM      30.42F
NOGALES        SUNNY     59   0   9 NE12G18   30.38F
6HR MIN TEMP:  38; 6HR MAX TEMP:  59;

SIERRA VISTA   SUNNY     48  -2  12 E7        30.43F
DOUGLAS        SUNNY     53   4  13 NE10G18   30.44F
6HR MIN TEMP:  19; 6HR MAX TEMP:  53;

SAFFORD        SUNNY     52   3  13 SE7       30.45F
6HR MIN TEMP:  27; 6HR MAX TEMP:  52;

$$

AZZ020-021-025-026-031-251900-
SOUTHWEST ARIZONA

CITY           SKY/WX    TMP DP  RH WIND       PRES   REMARKS
YUMA           SUNNY     67   7   9 NE10      30.45F
6HR MIN TEMP:  50; 6HR MAX TEMP:  67;

$$

CAZ031-033-041-043-047-048-061-251900-
SOUTHERN CALIFORNIA

CITY           SKY/WX    TMP DP  RH WIND       PRES   REMARKS
DOWNTOWN L.A.  SUNNY     72  14  11 VRB3      30.38F
6HR MIN TEMP:  54; 6HR MAX TEMP:  72;

L.A. AIRPORT   SUNNY     71  16  12 NE7       30.39S
6HR MIN TEMP:  55; 6HR MAX TEMP:  71;

SAN DIEGO      SUNNY     74  11   9 CALM      30.37F
6HR MIN TEMP:  50; 6HR MAX TEMP:  74;

BURBANK        SUNNY     68  12  11 CALM      30.40F
6HR MIN TEMP:  51; 6HR MAX TEMP:  69;

ONTARIO        SUNNY     69  15  12 E3        30.40F
6HR MIN TEMP:  45; 6HR MAX TEMP:  69;

RIVERSIDE      SUNNY     71  18  13 CALM      30.40F
6HR MIN TEMP:  44; 6HR MAX TEMP:  71;

PALM SPRINGS   SUNNY     70  12  10 E3        30.46S
6HR MIN TEMP:  50; 6HR MAX TEMP:  70;

EL CENTRO NAS  SUNNY     68  18  14 CALM      30.45S
6HR MIN TEMP:  41; 6HR MAX TEMP:  68;

IMPERIAL       SUNNY     67  23  19 CALM      30.45S
6HR MIN TEMP:  42; 6HR MAX TEMP:  67;

BLYTHE         SUNNY     58  14  17 S3        30.47F
6HR MIN TEMP:  43; 6HR MAX TEMP:  58;

NEEDLES        SUNNY     60  12  15 NE3       30.48F
6HR MIN TEMP:  42; 6HR MAX TEMP:  60;

$$

NVZ020-UTZ003-251900-
SOUTHERN NEVADA-UTAH

CITY           SKY/WX    TMP DP  RH WIND       PRES   REMARKS
LAS VEGAS      SUNNY     55  11  17 S6        30.44F
6HR MIN TEMP:  40; 6HR MAX TEMP:  55;

SALT LAKE CITY PTSUNNY   41  18  39 SE8       30.37R
6HR MIN TEMP:  33; 6HR MAX TEMP:  41;

$$

NMZ009-TXZ055-251900-
NEW MEXICO-WEST TEXAS

CITY           SKY/WX    TMP DP  RH WIND       PRES   REMARKS
ALBUQUERQUE    MOSUNNY   34  10  37 S3        30.39F
6HR MIN TEMP:  18; 6HR MAX TEMP:  35;

EL PASO        SUNNY     47  13  25 SW5       30.45F
6HR MIN TEMP:  34; 6HR MAX TEMP:  48;

$$


........................KEY........................
SKY/WX - SKY CONDITION/WEATHER
TMP    - TEMPERATURE IN FAHRENHEIT
DP     - DEW POINT IN FAHRENHEIT
RH     - RELATIVE HUMIDITY IN PERCENT
WIND   - DIRECTION AND SPEED IN MILES PER HOUR (MPH)
VRB    - VARIABLE WIND DIRECTION
PRES   - MEAN SEA LEVEL PRESSURE IN INCHES OF MERCURY
         F - FALLING PRESSURE   R - RISING PRESSURE
         S - STEADY PRESSURE
VSB    - VISIBILITY IN MILES
HX     - HEAT INDEX IN FAHRENHEIT
WCI    - WIND CHILL INDEX IN FAHRENHEIT
TC     - TEMPERATURE IN CELSIUS WHICH IS ALSO KNOWN AS
         TEMPERATURE IN CENTIGRADE
AFB    - AIR FORCE BASE
         LUKE AFB IS LUKE AIR FORCE BASE
         DAVIS-MONTHAN IS DAVIS-MONTHAN AIR FORCE BASE
NAS    - NAVAL AIR STATION
         EL CENTRO NAS IS EL CENTRO NAVAL AIR STATION
N/A    - NOT AVAILABLE


USA.gov is the U.S. government's official web portal to all federal, state and local government web resources and services.